Location: Risskov
(56.1972°N, 10.2480°E)
Time: 00:30:54
(UTC+00:00)

Cosmos 2151 - Pass Details

Date: 05 July 2020
Orbit: 580 x 602 km, 82.5° (Epoch: 03 August)

Event Time Altitude Azimuth Distance (km) Brightness Sun altitude
Exits shadow 23:23:51 10° 218° (SW) 1,974 5.2 -11.1°
Reaches altitude 10° 23:23:56 10° 218° (SW) 1,939 5.1 -11.1°
Maximum altitude 23:28:01 41° 290° (WNW) 869 4.0 -11.1°
Drops below altitude 10° 23:32:06 10° 2° (N) 1,942 7.2 -11.1°
Sets 23:34:25 0° 9° (N) 2,844 8.6 -11.1°
